[[{"header":{"parameterUnit":"m.s-1","parameterCategory":1,"la1":30.2991,"la2":30.254,"lo1":-89.0895,"lo2":-89.0444,"dy":0.0017,"dx":0.0017,"nx":28,"ny":28,"refTime":"2024-08-31T03:00:00:Z","depth":0,"parameterNumber":2,"parameterNumberName":"U-component_of_WINDS"},"data":[0,0,0,0,0,0,0,0,0,0,0,0,0,0,0,0,0,0,0,0,0,0,0,0,0,0,0,0,0,0,0,0,0,0,0,0,0,0,0,0,0,0,0,0,0,0,0,0,0,0,0,0,0,0,0,0,0,0,-1.8081,-1.808,0,-1.8055,-1.8055,-1.8054,-1.7971,-1.797,-1.7968,-1.7966,-1.7942,-1.7943,-1.7944,0,0,0,0,0,0,0,0,0,0,0,0,0,-1.8062,-1.8062,-1.8081,-1.808,-1.808,-1.8055,-1.8055,-1.8054,-1.7972,-1.797,-1.7967,-1.7965,-1.7942,-1.7943,-1.7944,0,0,0,0,0,0,0,0,0,0,0,0,0,-1.8056,-1.8063,-1.8081,-1.8036,-1.8032,-1.8055,-1.8055,-1.8054,-1.7972,-1.7969,-1.7967,-1.7964,-1.7941,-1.7943,-1.7944,-1.801,0,0,-1.7949,-1.795,0,0,0,0,0,0,0,0,-1.8057,-1.8057,-1.8043,-1.8039,-1.8034,-1.8013,-1.8039,-1.804,-1.7973,-1.7995,-1.7966,-1.7963,-1.7968,-1.7967,-1.7969,-1.8009,-1.8008,-1.795,-1.7951,-1.7951,-1.7952,0,0,0,0,0,0,0,-1.8057,-1.8058,-1.8071,-1.8043,-1.8037,-1.8018,-1.8014,-1.8039,-1.7998,-1.7993,-1.7987,-1.7985,-1.7965,-1.7967,-1.7968,-1.8008,-1.795,-1.7951,-1.7952,-1.7953,-1.8102,-1.8104,0,0,0,0,0,0,-1.8064,-1.8059,-1.8071,-1.807,-1.8039,-1.8021,-1.8016,-1.8023,-1.7997,-1.799,-1.7987,-1.7981,-1.7966,-1.7966,-1.7966,-1.8042,-1.7951,-1.7953,-1.7954,-1.8099,-1.8102,-1.8105,0,0,0,0,0,0,-1.8064,-1.8066,-1.8072,-1.8063,-1.8062,-1.8024,-1.8032,-1.8024,-1.8026,-1.7993,-1.7985,-1.7996,-1.7964,-1.7964,-1.8,-1.804,-1.7954,-1.7955,-1.8095,-1.81,-1.8104,-1.8194,0,0,0,0,0,0,-1.8063,-1.8066,-1.809,-1.8064,-1.8063,-1.8106,-1.8035,-1.8025,-1.8029,-1.802,-1.8,-1.7993,-1.7962,-1.7998,-1.8002,-1.8041,-1.7956,-1.8091,-1.8097,-1.8102,-1.8187,-1.82,-1.8212,0,0,0,0,0,-1.8063,-1.8116,-1.8091,-1.8093,-1.8091,-1.8108,-1.8108,-1.8069,-1.8032,-1.8056,-1.8035,-1.7994,-1.8035,-1.8002,-1.8006,-1.8046,-1.8089,-1.8096,-1.8102,-1.8181,-1.8198,-1.8212,0,0,0,0,0,0,-1.8148,-1.8112,-1.8084,-1.813,-1.8123,-1.8094,-1.8123,-1.8088,-1.8091,-1.8084,-1.8037,-1.8033,-1.8076,-1.8064,-1.8028,-1.8109,-1.8055,-1.8063,-1.8114,-1.813,-1.8142,-1.8144,-1.7958,0,0,0,0,0,-1.8173,-1.8188,-1.8156,-1.82,-1.8198,-1.8161,-1.8167,-1.8138,-1.8129,-1.8126,-1.8107,-1.81,-1.8112,-1.812,-1.8129,-1.8185,-1.818,-1.8215,-1.8227,-1.8238,-1.8245,-1.8275,-1.829,-1.8128,-1.8127,-1.8127,0,0,-1.8223,-1.8205,-1.8217,-1.8217,-1.8207,-1.8226,-1.8159,-1.8181,-1.8194,-1.8129,-1.8161,-1.8148,-1.8138,-1.8184,-1.8204,-1.8176,-1.8289,-1.8247,-1.8255,-1.8256,-1.8283,-1.8299,-1.8313,-1.8132,-1.8131,-1.813,0,0,-1.8323,-1.8311,-1.8346,-1.8339,-1.8326,-1.8302,-1.8311,-1.8287,-1.8276,-1.8307,-1.8259,-1.8275,-1.8296,-1.829,-1.829,-1.8391,-1.8354,-1.8395,-1.8462,-1.8491,-1.8504,-1.8515,-1.8551,-1.8565,-1.8403,-1.8403,-1.8403,0,-1.8387,-1.8411,-1.8369,-1.8394,-1.8396,-1.8338,-1.8374,-1.8369,-1.836,-1.8363,-1.8332,-1.8357,-1.8346,-1.8391,-1.8416,-1.8418,-1.8427,-1.8397,-1.8505,-1.8516,-1.8526,-1.856,-1.8574,-1.8408,-1.8407,-1.8407,-1.8406,0,-1.8491,-1.8509,-1.854,-1.8532,-1.8537,-1.8568,-1.8532,-1.8542,-1.8514,-1.8493,-1.8527,-1.8512,-1.8517,-1.8526,-1.8498,-1.8567,-1.8551,-1.8514,-1.8459,-1.8547,-1.8579,-1.8591,-1.8415,-1.8414,-1.8412,-1.8411,0,0,-1.8643,-1.8613,-1.8625,-1.8621,-1.8603,-1.8617,-1.8646,-1.865,-1.866,-1.8657,-1.868,-1.87,-1.8665,-1.8666,-1.8637,-1.8664,-1.8745,-1.8623,-1.8622,-1.8646,-1.8821,-1.8849,-1.8865,-1.872,-1.8723,-1.8725,-1.8822,0,-1.8739,-1.8785,-1.8749,-1.8802,-1.8819,-1.8765,-1.879,-1.8783,-1.8765,-1.8777,-1.8758,-1.8773,-1.8726,-1.8726,-1.875,-1.873,-1.8779,-1.8723,-1.8743,-1.8744,-1.8747,-1.8881,-1.891,-1.9003,-1.8834,-1.8836,-1.8837,0,-1.8855,-1.8857,-1.8912,-1.8891,-1.8897,-1.892,-1.8922,-1.8934,-1.8926,-1.8911,-1.8912,-1.8877,-1.8905,-1.8852,-1.8891,-1.8853,-1.886,-1.8852,-1.8854,-1.8855,-1.8796,-1.8885,-1.9031,-1.9045,-1.8856,-1.8855,-1.8853,0,-1.8961,-1.8977,-1.9012,-1.9011,-1.8988,-1.9005,-1.8997,-1.8985,-1.899,-1.8993,-1.8996,-1.9002,-1.9005,-1.9011,-1.8979,-1.8943,-1.9022,-1.8966,-1.9011,-1.9012,-1.903,-1.9029,-1.918,-1.9035,-1.9034,-1.9034,-1.9034,0,-1.9071,-1.9107,-1.9059,-1.9081,-1.912,-1.9079,-1.9119,-1.9105,-1.9096,-1.9114,-1.9068,-1.9087,-1.9044,-1.9059,-1.9034,-1.9071,-1.9073,-1.9062,-1.9055,-1.9066,-1.9068,-1.9069,-1.9062,-1.9038,-1.9037,-1.9036,-1.9036,0,-1.9196,-1.9165,-1.92,-1.9175,-1.917,-1.92,-1.918,-1.92,-1.9179,-1.9204,-1.9207,-1.9175,-1.9191,-1.916,-1.9171,-1.9154,-1.9206,-1.9189,-1.9209,-1.9203,-1.9251,-1.9247,-1.9407,-1.9426,-1.9269,-1.9271,-1.9272,0,-1.9268,-1.9294,-1.9273,-1.9282,-1.9276,-1.9291,-1.9296,-1.9257,-1.9265,-1.9258,-1.9279,-1.929,-1.9297,-1.9324,-1.9303,-1.9311,-1.9294,-1.935,-1.9295,-1.9306,-1.9295,-1.9294,-1.9297,-1.9361,-1.9363,-1.9365,-1.9366,0,-1.9399,-1.9383,-1.9392,-1.9396,-1.9404,-1.9405,-1.9404,-1.9414,-1.9373,-1.9384,-1.9399,-1.9404,-1.9416,-1.9428,-1.9432,-1.9424,-1.9389,-1.9383,-1.9394,-1.9406,-1.9416,-1.9411,-1.9239,-1.938,-1.9378,-1.9377,-1.9376,-1.9376,-1.95,-1.9521,-1.9509,-1.9521,-1.9516,-1.9516,-1.9533,-1.9515,-1.9527,-1.9533,-1.9509,-1.953,-1.9522,-1.9523,-1.9519,-1.9535,-1.951,-1.9526,-1.953,-1.9535,-1.9543,-1.9414,-1.9536,-1.9535,-1.9535,-1.9535,-1.9534,0,-1.9629,-1.9619,-1.963,-1.963,-1.964,-1.9605,-1.9602,-1.9613,-1.9631,-1.9626,-1.9634,-1.9651,-1.9663,-1.9644,-1.9652,-1.9669,-1.9654,-1.9673,-1.9671,-1.967,-1.9564,-1.9554,-1.9686,-1.9686,-1.9686,-1.9686,-1.9686,-1.9686,-1.9697,-1.9732,-1.9714,-1.9746,-1.9736,-1.9755,-1.9757,-1.9757,-1.9753,-1.9774,-1.9784,-1.9771,-1.976,-1.9768,-1.9778,-1.9772,-1.9778,-1.9803,-1.9792,-1.9693,-1.9678,-1.9664,-1.9654,-1.9804,-1.9805,-1.9896,-1.9897,-1.9898]},{"header":{"parameterUnit":"m.s-1","parameterCategory":1,"la1":30.2991,"la2":30.254,"lo1":-89.0895,"lo2":-89.0444,"dy":0.0017,"dx":0.0017,"nx":28,"ny":28,"refTime":"2024-08-31T03:00:00:Z","depth":0,"parameterNumber":3,"parameterNumberName":"V-component_of_WINDS"},"data":[0,0,0,0,0,0,0,0,0,0,0,0,0,0,0,0,0,0,0,0,0,0,0,0,0,0,0,0,0,0,0,0,0,0,0,0,0,0,0,0,0,0,0,0,0,0,0,0,0,0,0,0,0,0,0,0,0,0,1.9121,1.9123,0,1.9248,1.9249,1.9251,1.9305,1.9305,1.9305,1.9304,1.9433,1.9437,1.944,0,0,0,0,0,0,0,0,0,0,0,0,0,1.8926,1.8929,1.9121,1.9123,1.9124,1.9248,1.9249,1.9251,1.9305,1.9305,1.9305,1.9304,1.9432,1.9436,1.944,0,0,0,0,0,0,0,0,0,0,0,0,0,1.9027,1.893,1.9121,1.9166,1.9171,1.9247,1.925,1.9252,1.9305,1.9305,1.9305,1.9304,1.943,1.9436,1.9441,1.9481,0,0,1.9458,1.946,0,0,0,0,0,0,0,0,1.9022,1.9035,1.9158,1.9163,1.9169,1.926,1.9228,1.9328,1.9305,1.9254,1.9304,1.9304,1.9376,1.9386,1.941,1.9487,1.9493,1.9458,1.9461,1.9464,1.9465,0,0,0,0,0,0,0,1.9015,1.9029,1.9171,1.916,1.9167,1.918,1.9194,1.9247,1.9315,1.9259,1.9263,1.9277,1.9379,1.9405,1.9414,1.9494,1.9458,1.9463,1.9466,1.9468,1.9613,1.9613,0,0,0,0,0,0,1.9,1.9023,1.9167,1.9175,1.9093,1.9184,1.92,1.9231,1.9315,1.9327,1.9277,1.9279,1.9396,1.9407,1.9418,1.9472,1.9464,1.9469,1.9472,1.9612,1.9613,1.9614,0,0,0,0,0,0,1.8996,1.9012,1.9162,1.91,1.9121,1.9188,1.9223,1.9234,1.926,1.9329,1.9341,1.9291,1.9396,1.9411,1.9466,1.9477,1.9471,1.9476,1.9612,1.9613,1.9613,1.9579,0,0,0,0,0,0,1.899,1.9011,1.9026,1.91,1.9124,1.9207,1.9224,1.9237,1.927,1.9273,1.9345,1.9357,1.9397,1.9457,1.9471,1.9485,1.948,1.9611,1.9612,1.9613,1.9579,1.9578,1.9578,0,0,0,0,0,1.8983,1.9011,1.9027,1.9044,1.9145,1.9208,1.9221,1.9266,1.927,1.9287,1.9331,1.9355,1.9474,1.9462,1.9478,1.9494,1.961,1.9612,1.9613,1.958,1.9579,1.9578,0,0,0,0,0,0,1.8935,1.9021,1.904,1.9093,1.9142,1.9217,1.9239,1.9263,1.9313,1.9314,1.9368,1.9384,1.9435,1.947,1.9456,1.9538,1.9544,1.9549,1.9513,1.9513,1.9512,1.9503,1.9485,0,0,0,0,0,1.8931,1.8975,1.9048,1.9087,1.9111,1.9171,1.92,1.9231,1.9284,1.9306,1.9354,1.9405,1.9455,1.9486,1.9534,1.9585,1.9602,1.9603,1.9603,1.9602,1.9605,1.9636,1.9638,1.9618,1.9618,1.9618,0,0,1.8922,1.8975,1.8999,1.9079,1.9121,1.9166,1.9188,1.9234,1.9268,1.9313,1.9368,1.9405,1.9466,1.9519,1.9545,1.955,1.9614,1.9603,1.9602,1.9606,1.9638,1.9639,1.9641,1.9619,1.9619,1.9619,0,0,1.893,1.8973,1.9012,1.9054,1.9119,1.9158,1.9168,1.9239,1.9266,1.9322,1.9357,1.9399,1.9481,1.9524,1.9556,1.9582,1.9606,1.9597,1.9593,1.9622,1.9624,1.9626,1.9636,1.9639,1.96,1.96,1.96,0,1.8911,1.898,1.9028,1.9074,1.9108,1.9152,1.9192,1.923,1.9307,1.933,1.9335,1.9441,1.9485,1.955,1.9556,1.9581,1.9594,1.9589,1.962,1.9622,1.9624,1.9635,1.9638,1.9598,1.9598,1.9598,1.9599,0,1.8954,1.9001,1.9025,1.9099,1.9137,1.9179,1.9234,1.9266,1.9294,1.9334,1.9392,1.9446,1.9508,1.9525,1.9552,1.9595,1.9596,1.9609,1.9617,1.9624,1.9635,1.9639,1.9596,1.9597,1.9597,1.9597,0,0,1.8934,1.9036,1.9044,1.9079,1.9154,1.9192,1.9236,1.9298,1.9325,1.9376,1.9416,1.9486,1.95,1.9537,1.9569,1.9595,1.9614,1.9606,1.9608,1.9606,1.9666,1.9655,1.9659,1.9631,1.9632,1.9632,1.9661,0,1.8952,1.9034,1.908,1.9144,1.9189,1.9232,1.9271,1.9322,1.936,1.9404,1.9447,1.9496,1.951,1.9533,1.956,1.9606,1.9627,1.9604,1.9668,1.967,1.9652,1.9665,1.9654,1.9678,1.9665,1.9666,1.9667,0,1.8984,1.9036,1.9104,1.9176,1.9197,1.9231,1.9292,1.9334,1.9393,1.9419,1.9461,1.9494,1.9544,1.9547,1.9617,1.9601,1.963,1.9656,1.9658,1.9666,1.9669,1.9674,1.9687,1.969,1.9674,1.9673,1.9673,0,1.8964,1.9051,1.9104,1.9132,1.9217,1.9241,1.9277,1.9336,1.937,1.9423,1.9446,1.9504,1.9536,1.958,1.9628,1.9626,1.9694,1.9701,1.9718,1.9716,1.973,1.9728,1.9748,1.9747,1.9747,1.9747,1.9747,0,1.8979,1.902,1.9096,1.9128,1.9175,1.9228,1.9273,1.9313,1.9365,1.9406,1.9447,1.9485,1.9546,1.9591,1.9629,1.9682,1.9696,1.9719,1.9729,1.9716,1.9713,1.9736,1.9736,1.9748,1.9748,1.9748,1.9748,0,1.8964,1.9017,1.9078,1.9154,1.9174,1.9205,1.927,1.9304,1.9345,1.9397,1.9412,1.9477,1.9533,1.9585,1.966,1.9686,1.9739,1.9751,1.9719,1.9725,1.9739,1.9737,1.9775,1.9783,1.9775,1.9775,1.9775,0,1.8971,1.9003,1.9084,1.9115,1.9151,1.9199,1.9235,1.9289,1.9325,1.9396,1.9421,1.948,1.9531,1.9619,1.9672,1.973,1.9744,1.9753,1.9753,1.974,1.9746,1.9743,1.9748,1.9752,1.9752,1.9752,1.9752,0,1.8978,1.9003,1.9053,1.9114,1.9156,1.9205,1.9256,1.9279,1.9343,1.9382,1.944,1.9479,1.9556,1.9615,1.968,1.9717,1.9746,1.9752,1.9759,1.9746,1.9727,1.9739,1.9718,1.9751,1.9751,1.9751,1.9751,1.9751,1.8975,1.9006,1.9068,1.9124,1.9168,1.9215,1.9251,1.9298,1.9347,1.9415,1.9444,1.9503,1.9563,1.9653,1.9691,1.9738,1.9744,1.9754,1.9757,1.9759,1.9757,1.9719,1.975,1.975,1.975,1.975,1.975,0,1.8985,1.9027,1.9078,1.9149,1.9193,1.9216,1.9275,1.931,1.9362,1.9415,1.9465,1.9533,1.9591,1.965,1.9711,1.9738,1.9753,1.9752,1.9751,1.976,1.9747,1.9735,1.974,1.974,1.974,1.974,1.974,1.974,1.8995,1.905,1.9083,1.9161,1.9203,1.9262,1.9294,1.9338,1.9381,1.9456,1.9504,1.9543,1.9599,1.9665,1.972,1.9736,1.9757,1.9753,1.9773,1.976,1.976,1.9761,1.975,1.9757,1.9757,1.9781,1.9782,1.9782]}]]